Tracking 18980 objects as of 19-Feb-2018
HD Live streaming from Space Station
objects crossing your sky now

FENGYUN 1C DEB

Track FENGYUN 1C DEB now!
10-day predictions


NORAD ID: 36278
Int'l Code: 1999-025DXF
Perigee: 807.6 km
Apogee: 900.2 km
Inclination: 99.2 °
Period: 101.9 minutes
Semi major axis: 7224 km
RCS: 0.0111 m2 (small)
Launch date: May 10, 1999
Source: People's Republic of China (PRC)
Launch site: Taiyaun Space Center, China (TSC)

Note: This is SATELLITE DEBRIS
aabbcc
Your satellite tracking list
Your tracking list is empty




NASA's NSSDC Master Catalog

Two Line Element Set (TLE):
1 36278U 99025DXF 18047.20456824  .00000005  00000-0  26909-4 0  9997
2 36278  99.2223 197.1425 0064111  44.5942 316.0362 14.13685292532940
Source of the keplerian elements: AFSPC